Time,TemperatureF,DewpointF,PressureIn,WindDirection,WindDirectionDegrees,WindSpeedMPH,WindSpeedGustMPH,Humidity,HourlyPrecipIn,Conditions,Clouds,dailyrainin,SoftwareType,DateUTC
2013-03-22 00:00:00,61.2,14.6,25.13,SW,233,10.5,10.5,16,0.00,,---,0.00,VWS V14.00,2013-03-22 07:00:00,
2013-03-22 00:06:00,61.0,14.5,25.13,WSW,241,15.0,15.0,16,0.00,,---,0.00,VWS V14.00,2013-03-22 07:06:00,
2013-03-22 00:11:00,61.2,14.6,25.13,WSW,239,8.1,10.5,16,0.00,,---,0.00,VWS V14.00,2013-03-22 07:11:00,
2013-03-22 00:16:00,61.0,14.5,25.13,SW,216,12.3,13.2,16,0.00,,---,0.00,VWS V14.00,2013-03-22 07:16:00,
2013-03-22 00:22:00,61.0,14.5,25.13,WSW,241,10.1,12.3,16,0.00,,---,0.00,VWS V14.00,2013-03-22 07:22:00,
2013-03-22 00:27:00,61.2,18.6,25.13,WSW,249,8.1,11.0,19,0.00,,---,0.00,VWS V14.00,2013-03-22 07:27:00,
2013-03-22 00:32:00,61.2,18.6,25.13,SW,234,8.3,8.3,19,0.00,,---,0.00,VWS V14.00,2013-03-22 07:32:00,
2013-03-22 00:37:00,61.0,14.5,25.13,SW,228,13.2,13.2,16,0.00,,---,0.00,VWS V14.00,2013-03-22 07:37:00,
2013-03-22 00:42:00,61.2,18.6,25.13,SW,235,11.0,11.0,19,0.00,,---,0.00,VWS V14.00,2013-03-22 07:42:00,
2013-03-22 00:47:00,61.0,14.5,25.13,WSW,239,8.1,9.2,16,0.00,,---,0.00,VWS V14.00,2013-03-22 07:47:00,
2013-03-22 00:52:00,61.2,14.6,25.13,SW,222,6.3,6.3,16,0.00,,---,0.00,VWS V14.00,2013-03-22 07:52:00,
2013-03-22 00:57:00,61.0,14.5,25.13,SW,227,7.6,8.1,16,0.00,,---,0.00,VWS V14.00,2013-03-22 07:57:00,
2013-03-22 01:02:00,61.0,14.5,25.13,SW,236,12.8,12.8,16,0.00,,---,0.00,VWS V14.00,2013-03-22 08:02:00,
2013-03-22 01:07:00,61.7,19.0,25.13,SW,217,10.5,12.8,19,0.00,,---,0.00,VWS V14.00,2013-03-22 08:07:00,
2013-03-22 01:12:00,61.9,19.2,25.13,SW,222,8.7,11.0,19,0.00,,---,0.00,VWS V14.00,2013-03-22 08:12:00,
2013-03-22 01:17:00,61.9,19.2,25.13,SSW,212,11.0,11.0,19,0.00,,---,0.00,VWS V14.00,2013-03-22 08:17:00,
2013-03-22 01:23:00,61.9,19.2,25.13,WSW,242,12.3,12.3,19,0.00,,---,0.00,VWS V14.00,2013-03-22 08:23:00,
2013-03-22 01:28:00,62.1,19.3,25.10,SW,217,8.3,12.8,19,0.00,,---,0.00,VWS V14.00,2013-03-22 08:28:00,
2013-03-22 01:33:00,62.1,19.3,25.10,SSW,207,10.5,14.5,19,0.00,,---,0.00,VWS V14.00,2013-03-22 08:33:00,
2013-03-22 01:38:00,62.1,19.3,25.10,SW,216,13.2,13.2,19,0.00,,---,0.00,VWS V14.00,2013-03-22 08:38:00,
2013-03-22 01:43:00,62.1,19.3,25.10,SSW,198,17.4,17.4,19,0.00,,---,0.00,VWS V14.00,2013-03-22 08:43:00,
2013-03-22 01:48:00,62.1,19.3,25.10,SW,217,12.8,15.9,19,0.00,,---,0.00,VWS V14.00,2013-03-22 08:48:00,
2013-03-22 01:53:00,62.2,19.5,25.10,SSW,209,10.5,15.0,19,0.00,,---,0.00,VWS V14.00,2013-03-22 08:53:00,
2013-03-22 01:58:00,62.2,19.5,25.10,SSW,207,12.3,12.8,19,0.00,,---,0.00,VWS V14.00,2013-03-22 08:58:00,
2013-03-22 02:03:00,62.2,19.5,25.10,SSW,207,12.8,13.2,19,0.00,,---,0.00,VWS V14.00,2013-03-22 09:03:00,
2013-03-22 02:08:00,62.2,19.5,25.10,SSW,205,13.2,19.7,19,0.00,,---,0.00,VWS V14.00,2013-03-22 09:08:00,
2013-03-22 02:13:00,62.2,19.5,25.10,SSW,209,10.1,10.1,19,0.00,,---,0.00,VWS V14.00,2013-03-22 09:13:00,
2013-03-22 02:18:00,62.1,19.3,25.10,SW,230,15.0,15.0,19,0.00,,---,0.00,VWS V14.00,2013-03-22 09:18:00,
2013-03-22 02:23:00,62.1,19.3,25.10,SW,215,11.9,12.8,19,0.00,,---,0.00,VWS V14.00,2013-03-22 09:23:00,
2013-03-22 02:28:00,62.1,19.3,25.10,SSW,200,10.5,10.5,19,0.00,,---,0.00,VWS V14.00,2013-03-22 09:28:00,
2013-03-22 02:33:00,62.1,19.3,25.10,SW,223,10.1,10.1,19,0.00,,---,0.00,VWS V14.00,2013-03-22 09:33:00,
2013-03-22 02:38:00,62.1,19.3,25.10,SSW,199,10.1,12.8,19,0.00,,---,0.00,VWS V14.00,2013-03-22 09:38:00,
2013-03-22 02:43:00,62.1,19.3,25.10,SW,216,10.5,10.5,19,0.00,,---,0.00,VWS V14.00,2013-03-22 09:43:00,
2013-03-22 02:48:00,62.1,19.3,25.10,SSW,211,12.3,15.4,19,0.00,,---,0.00,VWS V14.00,2013-03-22 09:48:00,
2013-03-22 02:53:00,62.1,19.3,25.10,SW,224,8.1,12.8,19,0.00,,---,0.00,VWS V14.00,2013-03-22 09:53:00,
2013-03-22 02:58:00,61.9,19.2,25.10,SW,229,11.0,12.8,19,0.00,,---,0.00,VWS V14.00,2013-03-22 09:58:00,
2013-03-22 03:03:00,61.9,19.2,25.10,SW,231,11.4,22.8,19,0.00,,---,0.00,VWS V14.00,2013-03-22 10:03:00,
2013-03-22 03:08:00,62.1,19.3,25.10,WSW,252,11.0,11.0,19,0.00,,---,0.00,VWS V14.00,2013-03-22 10:08:00,
2013-03-22 03:13:00,61.9,19.2,25.10,SSW,213,12.3,12.3,19,0.00,,---,0.00,VWS V14.00,2013-03-22 10:13:00,
2013-03-22 03:19:00,61.9,19.2,25.10,SW,217,8.7,20.1,19,0.00,,---,0.00,VWS V14.00,2013-03-22 10:19:00,
2013-03-22 03:24:00,61.9,19.2,25.10,SSW,211,7.6,12.8,19,0.00,,---,0.00,VWS V14.00,2013-03-22 10:24:00,
2013-03-22 03:29:00,61.9,19.2,25.10,SW,235,8.3,8.7,19,0.00,,---,0.00,VWS V14.00,2013-03-22 10:29:00,
2013-03-22 03:34:00,61.7,19.0,25.10,SW,218,16.8,18.3,19,0.00,,---,0.00,VWS V14.00,2013-03-22 10:34:00,
2013-03-22 03:39:00,61.7,19.0,25.10,SW,235,10.1,15.0,19,0.00,,---,0.00,VWS V14.00,2013-03-22 10:39:00,
2013-03-22 03:44:00,61.7,19.0,25.10,South,183,9.6,9.6,19,0.00,,---,0.00,VWS V14.00,2013-03-22 10:44:00,
2013-03-22 03:49:00,61.7,19.0,25.10,SSW,209,10.5,12.3,19,0.00,,---,0.00,VWS V14.00,2013-03-22 10:49:00,
2013-03-22 03:54:00,61.7,19.0,25.10,West,276,15.9,15.9,19,0.00,,---,0.00,VWS V14.00,2013-03-22 10:54:00,
2013-03-22 03:59:00,61.7,19.0,25.10,SSW,206,10.1,13.2,19,0.00,,---,0.00,VWS V14.00,2013-03-22 10:59:00,
2013-03-22 04:04:00,61.7,19.0,25.10,WSW,237,7.6,11.0,19,0.00,,---,0.00,VWS V14.00,2013-03-22 11:04:00,
2013-03-22 04:09:00,61.5,18.9,25.10,SW,233,10.1,10.5,19,0.00,,---,0.00,VWS V14.00,2013-03-22 11:09:00,
2013-03-22 04:14:00,61.3,14.8,25.10,SW,219,7.6,10.1,16,0.00,,---,0.00,VWS V14.00,2013-03-22 11:14:00,
2013-03-22 04:20:00,61.3,18.8,25.10,SSW,209,8.1,8.7,19,0.00,,---,0.00,VWS V14.00,2013-03-22 11:20:00,
2013-03-22 04:25:00,61.2,14.6,25.10,SSW,200,11.0,14.1,16,0.00,,---,0.00,VWS V14.00,2013-03-22 11:25:00,
2013-03-22 04:30:00,61.2,14.6,25.07,SSW,203,10.1,11.0,16,0.00,,---,0.00,VWS V14.00,2013-03-22 11:30:00,
2013-03-22 04:35:00,61.2,14.6,25.07,South,187,7.6,8.7,16,0.00,,---,0.00,VWS V14.00,2013-03-22 11:35:00,
2013-03-22 04:40:00,61.0,14.5,25.10,SSW,197,10.1,15.4,16,0.00,,---,0.00,VWS V14.00,2013-03-22 11:40:00,
2013-03-22 04:45:00,61.0,14.5,25.10,SW,231,10.5,10.5,16,0.00,,---,0.00,VWS V14.00,2013-03-22 11:45:00,
2013-03-22 04:50:00,60.6,18.2,25.10,SW,218,11.0,11.0,19,0.00,,---,0.00,VWS V14.00,2013-03-22 11:50:00,
2013-03-22 04:55:00,60.6,15.6,25.10,SW,218,15.9,15.9,17,0.00,,---,0.00,VWS V14.00,2013-03-22 11:55:00,
2013-03-22 05:00:00,60.6,18.2,25.10,South,184,11.9,11.9,19,0.00,,---,0.00,VWS V14.00,2013-03-22 12:00:00,
2013-03-22 05:05:00,60.6,15.6,25.10,WSW,245,12.8,12.8,17,0.00,,---,0.00,VWS V14.00,2013-03-22 12:05:00,
2013-03-22 05:10:00,60.4,15.4,25.10,SSW,200,15.0,15.0,17,0.00,,---,0.00,VWS V14.00,2013-03-22 12:10:00,
2013-03-22 05:15:00,60.4,15.4,25.10,SSW,195,11.0,11.0,17,0.00,,---,0.00,VWS V14.00,2013-03-22 12:15:00,
2013-03-22 05:20:00,60.3,15.3,25.10,SW,215,8.7,8.7,17,0.00,,---,0.00,VWS V14.00,2013-03-22 12:20:00,
2013-03-22 05:25:00,60.3,15.3,25.10,SSW,197,11.0,13.2,17,0.00,,---,0.00,VWS V14.00,2013-03-22 12:25:00,
2013-03-22 05:30:00,60.1,15.1,25.10,South,177,8.3,8.7,17,0.00,,---,0.00,VWS V14.00,2013-03-22 12:30:00,
2013-03-22 05:36:00,60.1,15.1,25.10,SSW,207,7.6,10.5,17,0.00,,---,0.00,VWS V14.00,2013-03-22 12:36:00,
2013-03-22 05:41:00,60.1,15.1,25.10,SW,215,10.5,17.4,17,0.00,,---,0.00,VWS V14.00,2013-03-22 12:41:00,
2013-03-22 05:47:00,60.1,15.1,25.10,SW,218,7.6,10.1,17,0.00,,---,0.00,VWS V14.00,2013-03-22 12:47:00,
2013-03-22 05:52:00,59.7,14.9,25.10,South,181,11.0,15.0,17,0.00,,---,0.00,VWS V14.00,2013-03-22 12:52:00,
2013-03-22 05:57:00,59.5,14.7,25.10,South,187,8.7,10.5,17,0.00,,---,0.00,VWS V14.00,2013-03-22 12:57:00,
2013-03-22 06:02:00,59.5,14.7,25.10,SSW,199,8.3,11.0,17,0.00,,---,0.00,VWS V14.00,2013-03-22 13:02:00,
2013-03-22 06:07:00,59.4,14.6,25.10,SW,236,7.6,10.1,17,0.00,,---,0.00,VWS V14.00,2013-03-22 13:07:00,
2013-03-22 06:12:00,59.4,14.6,25.13,SSW,193,6.3,6.3,17,0.00,,---,0.00,VWS V14.00,2013-03-22 13:12:00,
2013-03-22 06:17:00,59.4,14.6,25.13,SW,236,4.0,6.7,17,0.00,,---,0.00,VWS V14.00,2013-03-22 13:17:00,
2013-03-22 06:22:00,59.2,14.4,25.13,SW,214,3.1,5.4,17,0.00,,---,0.00,VWS V14.00,2013-03-22 13:22:00,
2013-03-22 06:27:00,58.8,14.1,25.13,SSW,199,5.8,6.3,17,0.00,,---,0.00,VWS V14.00,2013-03-22 13:27:00,
2013-03-22 06:32:00,58.8,14.1,25.13,SSW,209,7.2,7.6,17,0.00,,---,0.00,VWS V14.00,2013-03-22 13:32:00,
2013-03-22 06:37:00,58.8,14.1,25.13,SW,218,6.3,6.3,17,0.00,,---,0.00,VWS V14.00,2013-03-22 13:37:00,
2013-03-22 06:42:00,58.6,14.0,25.13,SSE,164,6.3,8.1,17,0.00,,---,0.00,VWS V14.00,2013-03-22 13:42:00,
2013-03-22 06:47:00,58.8,14.1,25.13,South,184,6.3,6.3,17,0.00,,---,0.00,VWS V14.00,2013-03-22 13:47:00,
2013-03-22 06:52:00,58.6,14.0,25.13,SW,227,5.8,8.7,17,0.00,,---,0.00,VWS V14.00,2013-03-22 13:52:00,
2013-03-22 06:57:00,58.5,13.8,25.13,SSW,211,8.1,10.1,17,0.00,,---,0.00,VWS V14.00,2013-03-22 13:57:00,
2013-03-22 07:02:00,58.6,14.0,25.13,WSW,241,8.3,8.3,17,0.00,,---,0.00,VWS V14.00,2013-03-22 14:02:00,
2013-03-22 07:07:00,58.8,14.1,25.13,SW,222,11.0,11.0,17,0.00,,---,0.00,VWS V14.00,2013-03-22 14:07:00,
2013-03-22 07:12:00,59.4,14.6,25.13,South,179,5.8,5.8,17,0.00,,---,0.00,VWS V14.00,2013-03-22 14:12:00,
2013-03-22 07:18:00,60.3,15.3,25.13,SW,222,15.9,15.9,17,0.00,,---,0.00,VWS V14.00,2013-03-22 14:18:00,
2013-03-22 07:23:00,61.0,14.5,25.13,South,177,4.0,6.7,16,0.00,,---,0.00,VWS V14.00,2013-03-22 14:23:00,
2013-03-22 07:28:00,61.5,18.9,25.13,South,191,8.1,8.1,19,0.00,,---,0.00,VWS V14.00,2013-03-22 14:28:00,
2013-03-22 07:33:00,61.9,19.2,25.13,South,186,8.7,8.7,19,0.00,,---,0.00,VWS V14.00,2013-03-22 14:33:00,
2013-03-22 07:38:00,62.2,19.5,25.13,SW,231,11.0,11.0,19,0.00,,---,0.00,VWS V14.00,2013-03-22 14:38:00,
2013-03-22 07:43:00,62.2,19.5,25.13,SW,215,5.4,7.6,19,0.00,,---,0.00,VWS V14.00,2013-03-22 14:43:00,
2013-03-22 07:48:00,62.4,19.6,25.13,South,186,4.0,5.8,19,0.00,,---,0.00,VWS V14.00,2013-03-22 14:48:00,
2013-03-22 07:53:00,62.8,18.7,25.13,SSW,199,7.6,11.0,18,0.00,,---,0.00,VWS V14.00,2013-03-22 14:53:00,
2013-03-22 07:58:00,62.8,18.7,25.16,SSW,202,7.6,10.1,18,0.00,,---,0.00,VWS V14.00,2013-03-22 14:58:00,
2013-03-22 08:03:00,62.6,18.5,25.16,SSW,209,2.7,2.7,18,0.00,,---,0.00,VWS V14.00,2013-03-22 15:03:00,
2013-03-22 08:08:00,62.6,18.5,25.16,ESE,114,5.8,8.7,18,0.00,,---,0.00,VWS V14.00,2013-03-22 15:08:00,
2013-03-22 08:13:00,63.0,18.8,25.16,SSE,163,0.0,3.6,18,0.00,,---,0.00,VWS V14.00,2013-03-22 15:13:00,
2013-03-22 08:18:00,63.3,19.1,25.16,SSE,157,8.3,8.3,18,0.00,,---,0.00,VWS V14.00,2013-03-22 15:18:00,
2013-03-22 08:23:00,63.3,19.1,25.16,ESE,108,6.3,7.2,18,0.00,,---,0.00,VWS V14.00,2013-03-22 15:23:00,
2013-03-22 08:28:00,63.5,19.3,25.13,ENE,69,3.1,3.6,18,0.00,,---,0.00,VWS V14.00,2013-03-22 15:28:00,
2013-03-22 08:33:00,64.0,19.7,25.13,SSE,161,8.1,8.1,18,0.00,,---,0.00,VWS V14.00,2013-03-22 15:33:00,
2013-03-22 08:38:00,64.2,19.9,25.13,SE,145,10.1,10.1,18,0.00,,---,0.00,VWS V14.00,2013-03-22 15:38:00,
2013-03-22 08:43:00,64.2,19.9,25.16,South,183,8.7,8.7,18,0.00,,---,0.00,VWS V14.00,2013-03-22 15:43:00,
2013-03-22 08:48:00,64.2,19.9,25.16,SSE,158,8.1,11.0,18,0.00,,---,0.00,VWS V14.00,2013-03-22 15:48:00,
2013-03-22 08:53:00,64.0,19.7,25.16,South,185,5.8,5.8,18,0.00,,---,0.00,VWS V14.00,2013-03-22 15:53:00,
2013-03-22 08:58:00,64.4,20.0,25.13,SW,217,8.3,12.3,18,0.00,,---,0.00,VWS V14.00,2013-03-22 15:58:00,
2013-03-22 09:03:00,64.4,20.0,25.13,SSW,211,5.8,6.3,18,0.00,,---,0.00,VWS V14.00,2013-03-22 16:03:00,
2013-03-22 09:08:00,64.6,20.1,25.13,SSE,165,6.3,8.1,18,0.00,,---,0.00,VWS V14.00,2013-03-22 16:08:00,
2013-03-22 09:14:00,64.8,20.3,25.16,South,182,2.7,4.0,18,0.00,,---,0.00,VWS V14.00,2013-03-22 16:14:00,
2013-03-22 09:19:00,64.9,20.4,25.16,SSE,152,3.6,5.8,18,0.00,,---,0.00,VWS V14.00,2013-03-22 16:19:00,
2013-03-22 09:24:00,65.5,20.9,25.16,SW,216,0.0,2.7,18,0.00,,---,0.00,VWS V14.00,2013-03-22 16:24:00,
2013-03-22 09:29:00,65.8,21.2,25.13,WSW,258,6.3,7.6,18,0.00,,---,0.00,VWS V14.00,2013-03-22 16:29:00,
2013-03-22 09:34:00,66.0,21.3,25.13,SW,226,3.6,10.5,18,0.00,,---,0.00,VWS V14.00,2013-03-22 16:34:00,
2013-03-22 09:39:00,66.0,21.3,25.13,SSW,208,4.9,8.3,18,0.00,,---,0.00,VWS V14.00,2013-03-22 16:39:00,
2013-03-22 09:44:00,66.0,21.3,25.13,SSE,154,3.6,6.3,18,0.00,,---,0.00,VWS V14.00,2013-03-22 16:44:00,
2013-03-22 09:49:00,66.4,20.3,25.13,SSE,150,4.9,10.1,17,0.00,,---,0.00,VWS V14.00,2013-03-22 16:49:00,
2013-03-22 09:54:00,66.7,20.6,25.13,SE,138,13.2,15.4,17,0.00,,---,0.00,VWS V14.00,2013-03-22 16:54:00,
2013-03-22 09:59:00,66.6,20.4,25.13,SW,223,3.1,5.8,17,0.00,,---,0.00,VWS V14.00,2013-03-22 16:59:00,
2013-03-22 10:05:00,66.9,20.7,25.13,SSE,150,12.8,13.6,17,0.00,,---,0.00,VWS V14.00,2013-03-22 17:05:00,
2013-03-22 10:10:00,67.1,20.9,25.13,South,176,13.2,13.2,17,0.00,,---,0.00,VWS V14.00,2013-03-22 17:10:00,
2013-03-22 10:15:00,67.3,21.0,25.13,SSE,156,12.8,16.3,17,0.00,,---,0.00,VWS V14.00,2013-03-22 17:15:00,
2013-03-22 10:20:00,67.3,21.0,25.13,South,173,13.2,13.2,17,0.00,,---,0.00,VWS V14.00,2013-03-22 17:20:00,
2013-03-22 10:25:00,67.8,21.5,25.13,SSW,192,13.2,13.6,17,0.00,,---,0.00,VWS V14.00,2013-03-22 17:25:00,
2013-03-22 10:30:00,68.2,21.7,25.13,SSW,192,12.8,12.8,17,0.00,,---,0.00,VWS V14.00,2013-03-22 17:30:00,
2013-03-22 10:35:00,68.0,21.6,25.13,SE,142,11.0,11.0,17,0.00,,---,0.00,VWS V14.00,2013-03-22 17:35:00,
2013-03-22 10:40:00,68.0,21.6,25.13,SW,230,8.1,8.3,17,0.00,,---,0.00,VWS V14.00,2013-03-22 17:40:00,
2013-03-22 10:45:00,68.4,21.9,25.13,South,182,5.4,6.3,17,0.00,,---,0.00,VWS V14.00,2013-03-22 17:45:00,
2013-03-22 10:50:00,68.5,22.0,25.13,SSE,162,8.7,13.2,17,0.00,,---,0.00,VWS V14.00,2013-03-22 17:50:00,
2013-03-22 10:55:00,68.9,22.3,25.13,SSE,156,8.1,15.4,17,0.00,,---,0.00,VWS V14.00,2013-03-22 17:55:00,
2013-03-22 11:01:00,68.9,22.3,25.13,SSE,154,10.5,12.8,17,0.00,,---,0.00,VWS V14.00,2013-03-22 18:01:00,
2013-03-22 11:06:00,68.9,22.3,25.13,SW,216,0.0,3.6,17,0.00,,---,0.00,VWS V14.00,2013-03-22 18:06:00,
2013-03-22 11:11:00,69.4,22.8,25.13,South,176,8.7,11.0,17,0.00,,---,0.00,VWS V14.00,2013-03-22 18:11:00,
2013-03-22 11:16:00,69.6,22.9,25.13,SSE,153,12.8,16.3,17,0.00,,---,0.00,VWS V14.00,2013-03-22 18:16:00,
2013-03-22 11:21:00,69.1,22.5,25.13,SW,222,9.2,11.0,17,0.00,,---,0.00,VWS V14.00,2013-03-22 18:21:00,
2013-03-22 11:26:00,69.3,22.6,25.10,South,191,5.4,12.8,17,0.00,,---,0.00,VWS V14.00,2013-03-22 18:26:00,
2013-03-22 11:31:00,70.0,23.2,25.10,SSE,162,12.8,12.8,17,0.00,,---,0.00,VWS V14.00,2013-03-22 18:31:00,
2013-03-22 11:36:00,70.0,23.2,25.10,ESE,113,5.4,5.4,17,0.00,,---,0.00,VWS V14.00,2013-03-22 18:36:00,
2013-03-22 11:41:00,70.0,23.2,25.10,West,260,6.3,6.3,17,0.00,,---,0.00,VWS V14.00,2013-03-22 18:41:00,
2013-03-22 11:46:00,70.0,23.2,25.10,SSW,209,9.2,10.5,17,0.00,,---,0.00,VWS V14.00,2013-03-22 18:46:00,
2013-03-22 11:51:00,70.7,23.8,25.10,SSE,165,14.5,15.4,17,0.00,,---,0.00,VWS V14.00,2013-03-22 18:51:00,
2013-03-22 11:56:00,70.7,23.8,25.10,WSW,257,4.0,4.0,17,0.00,,---,0.00,VWS V14.00,2013-03-22 18:56:00,
2013-03-22 12:01:00,71.1,24.1,25.10,SW,230,6.3,8.7,17,0.00,,---,0.00,VWS V14.00,2013-03-22 19:01:00,
2013-03-22 12:07:00,71.1,24.1,25.10,WSW,254,17.0,19.7,17,0.00,,---,0.00,VWS V14.00,2013-03-22 19:07:00,
2013-03-22 12:12:00,71.2,24.2,25.10,West,263,11.0,11.0,17,0.00,,---,0.00,VWS V14.00,2013-03-22 19:12:00,
2013-03-22 12:17:00,71.4,24.4,25.10,SW,229,10.5,17.0,17,0.00,,---,0.00,VWS V14.00,2013-03-22 19:17:00,
2013-03-22 12:22:00,71.1,24.1,25.10,South,172,11.0,13.2,17,0.00,,---,0.00,VWS V14.00,2013-03-22 19:22:00,
2013-03-22 12:28:00,71.4,24.4,25.10,SSE,159,10.5,12.8,17,0.00,,---,0.00,VWS V14.00,2013-03-22 19:28:00,
2013-03-22 12:33:00,71.8,23.2,25.10,South,181,15.0,21.0,16,0.00,,---,0.00,VWS V14.00,2013-03-22 19:33:00,
2013-03-22 12:38:00,72.5,23.8,25.10,WSW,240,8.7,12.3,16,0.00,,---,0.00,VWS V14.00,2013-03-22 19:38:00,
2013-03-22 12:43:00,72.3,23.6,25.10,WNW,298,12.3,14.5,16,0.00,,---,0.00,VWS V14.00,2013-03-22 19:43:00,
2013-03-22 12:48:00,72.3,23.6,25.10,WSW,238,13.2,19.7,16,0.00,,---,0.00,VWS V14.00,2013-03-22 19:48:00,
2013-03-22 12:53:00,72.0,23.4,25.10,WNW,296,25.1,25.1,16,0.00,,---,0.00,VWS V14.00,2013-03-22 19:53:00,
2013-03-22 12:58:00,71.8,23.2,25.07,WNW,288,19.7,20.6,16,0.00,,---,0.00,VWS V14.00,2013-03-22 19:58:00,
2013-03-22 13:03:00,72.1,23.5,25.07,WSW,247,12.3,13.2,16,0.00,,---,0.00,VWS V14.00,2013-03-22 20:03:00,
2013-03-22 13:08:00,72.1,23.5,25.07,WNW,286,17.0,23.3,16,0.00,,---,0.00,VWS V14.00,2013-03-22 20:08:00,
2013-03-22 13:13:00,72.1,23.5,25.07,West,268,19.7,19.7,16,0.00,,---,0.00,VWS V14.00,2013-03-22 20:13:00,
2013-03-22 13:18:00,72.3,23.6,25.07,West,275,6.3,7.6,16,0.00,,---,0.00,VWS V14.00,2013-03-22 20:18:00,
2013-03-22 13:23:00,72.5,23.8,25.07,West,268,21.9,21.9,16,0.00,,---,0.00,VWS V14.00,2013-03-22 20:23:00,
2013-03-22 13:28:00,72.7,23.9,25.07,West,262,15.0,15.0,16,0.00,,---,0.00,VWS V14.00,2013-03-22 20:28:00,
2013-03-22 13:33:00,72.5,23.8,25.07,West,265,23.7,23.7,16,0.00,,---,0.00,VWS V14.00,2013-03-22 20:33:00,
2013-03-22 13:38:00,72.3,23.6,25.07,WSW,253,16.8,17.4,16,0.00,,---,0.00,VWS V14.00,2013-03-22 20:38:00,
2013-03-22 13:44:00,72.1,23.5,25.07,WSW,246,5.8,5.8,16,0.00,,---,0.00,VWS V14.00,2013-03-22 20:44:00,
2013-03-22 13:49:00,72.5,23.8,25.07,West,263,22.8,24.2,16,0.00,,---,0.00,VWS V14.00,2013-03-22 20:49:00,
2013-03-22 13:54:00,72.7,23.9,25.07,SW,215,11.0,11.0,16,0.00,,---,0.00,VWS V14.00,2013-03-22 20:54:00,
2013-03-22 13:59:00,72.5,23.8,25.07,WSW,254,15.4,19.7,16,0.00,,---,0.00,VWS V14.00,2013-03-22 20:59:00,
2013-03-22 14:04:00,72.7,23.9,25.07,WSW,244,13.2,17.4,16,0.00,,---,0.00,VWS V14.00,2013-03-22 21:04:00,
2013-03-22 14:09:00,72.3,23.6,25.07,WSW,244,13.2,13.2,16,0.00,,---,0.00,VWS V14.00,2013-03-22 21:09:00,
2013-03-22 14:14:00,72.1,23.5,25.07,NW,324,10.5,12.3,16,0.00,,---,0.00,VWS V14.00,2013-03-22 21:14:00,
2013-03-22 14:20:00,72.0,23.4,25.07,SW,236,7.6,8.7,16,0.00,,---,0.00,VWS V14.00,2013-03-22 21:20:00,
2013-03-22 14:25:00,72.1,23.5,25.07,WSW,252,17.0,22.4,16,0.00,,---,0.00,VWS V14.00,2013-03-22 21:25:00,
2013-03-22 14:30:00,72.5,23.8,25.07,West,270,19.7,25.7,16,0.00,,---,0.00,VWS V14.00,2013-03-22 21:30:00,
2013-03-22 14:35:00,72.5,23.8,25.07,WNW,290,11.0,13.2,16,0.00,,---,0.00,VWS V14.00,2013-03-22 21:35:00,
2013-03-22 14:40:00,72.9,24.1,25.07,WNW,282,18.8,23.3,16,0.00,,---,0.00,VWS V14.00,2013-03-22 21:40:00,
2013-03-22 14:45:00,73.0,24.2,25.07,South,183,5.4,11.0,16,0.00,,---,0.00,VWS V14.00,2013-03-22 21:45:00,
2013-03-22 14:50:00,72.9,24.1,25.07,WSW,245,11.9,17.4,16,0.00,,---,0.00,VWS V14.00,2013-03-22 21:50:00,
2013-03-22 14:55:00,72.3,23.6,25.07,West,264,17.4,24.2,16,0.00,,---,0.00,VWS V14.00,2013-03-22 21:55:00,
2013-03-22 15:00:00,72.5,23.8,25.07,WSW,247,22.8,22.8,16,0.00,,---,0.00,VWS V14.00,2013-03-22 22:00:00,
2013-03-22 15:05:00,72.3,23.6,25.07,West,277,15.0,17.4,16,0.00,,---,0.00,VWS V14.00,2013-03-22 22:05:00,
2013-03-22 15:11:00,72.3,23.6,25.07,West,270,11.0,25.7,16,0.00,,---,0.00,VWS V14.00,2013-03-22 22:11:00,
2013-03-22 15:16:00,72.1,23.5,25.07,SSW,199,5.8,5.8,16,0.00,,---,0.00,VWS V14.00,2013-03-22 22:16:00,
2013-03-22 15:21:00,72.3,23.6,25.07,WSW,252,16.3,16.3,16,0.00,,---,0.00,VWS V14.00,2013-03-22 22:21:00,
2013-03-22 15:26:00,72.1,23.5,25.07,West,262,21.5,24.6,16,0.00,,---,0.00,VWS V14.00,2013-03-22 22:26:00,
2013-03-22 15:32:00,72.0,23.4,25.07,SW,230,16.3,17.4,16,0.00,,---,0.00,VWS V14.00,2013-03-22 22:32:00,
2013-03-22 15:37:00,71.6,23.1,25.07,West,270,23.3,23.3,16,0.00,,---,0.00,VWS V14.00,2013-03-22 22:37:00,
2013-03-22 15:42:00,72.0,23.4,25.04,WSW,252,15.4,15.4,16,0.00,,---,0.00,VWS V14.00,2013-03-22 22:42:00,
2013-03-22 15:47:00,72.1,23.5,25.04,West,265,12.3,17.9,16,0.00,,---,0.00,VWS V14.00,2013-03-22 22:47:00,
2013-03-22 15:52:00,72.3,23.6,25.04,WSW,256,12.3,15.0,16,0.00,,---,0.00,VWS V14.00,2013-03-22 22:52:00,
2013-03-22 15:57:00,72.1,23.5,25.04,SSW,212,17.4,17.4,16,0.00,,---,0.00,VWS V14.00,2013-03-22 22:57:00,
2013-03-22 16:02:00,71.6,23.1,25.04,West,269,14.1,14.1,16,0.00,,---,0.00,VWS V14.00,2013-03-22 23:02:00,
2013-03-22 16:07:00,71.8,23.2,25.04,WSW,249,16.3,24.6,16,0.00,,---,0.00,VWS V14.00,2013-03-22 23:07:00,
2013-03-22 16:12:00,71.4,24.4,25.04,WSW,258,10.1,15.4,17,0.00,,---,0.00,VWS V14.00,2013-03-22 23:12:00,
2013-03-22 16:17:00,71.2,24.2,25.04,West,263,17.9,23.7,17,0.00,,---,0.00,VWS V14.00,2013-03-22 23:17:00,
2013-03-22 16:22:00,71.2,24.2,25.04,WSW,239,22.8,22.8,17,0.00,,---,0.00,VWS V14.00,2013-03-22 23:22:00,
2013-03-22 16:27:00,70.9,23.9,25.04,WSW,251,21.9,21.9,17,0.00,,---,0.00,VWS V14.00,2013-03-22 23:27:00,
2013-03-22 16:32:00,70.7,23.8,25.04,WSW,250,17.4,17.4,17,0.00,,---,0.00,VWS V14.00,2013-03-22 23:32:00,
2013-03-22 16:37:00,70.5,23.6,25.04,West,266,22.8,22.8,17,0.00,,---,0.00,VWS V14.00,2013-03-22 23:37:00,
2013-03-22 16:42:00,70.5,23.6,25.04,SW,234,13.2,13.2,17,0.00,,---,0.00,VWS V14.00,2013-03-22 23:42:00,
2013-03-22 16:47:00,70.9,23.9,25.04,WSW,250,25.7,25.7,17,0.00,,---,0.00,VWS V14.00,2013-03-22 23:47:00,
2013-03-22 16:53:00,70.5,23.6,25.04,West,267,17.0,17.4,17,0.00,,---,0.00,VWS V14.00,2013-03-22 23:53:00,
2013-03-22 16:58:00,70.2,23.4,25.07,WSW,256,15.4,15.4,17,0.00,,---,0.00,VWS V14.00,2013-03-22 23:58:00,
2013-03-22 17:03:00,69.6,22.9,25.07,West,261,22.8,22.8,17,0.00,,---,0.00,VWS V14.00,2013-03-23 00:03:00,
2013-03-22 17:08:00,69.4,22.8,25.07,SW,231,19.7,23.3,17,0.00,,---,0.00,VWS V14.00,2013-03-23 00:08:00,
2013-03-22 17:13:00,69.3,22.6,25.04,WSW,242,13.2,15.4,17,0.00,,---,0.00,VWS V14.00,2013-03-23 00:13:00,
2013-03-22 17:18:00,69.3,22.6,25.04,WNW,303,15.4,21.5,17,0.00,,---,0.00,VWS V14.00,2013-03-23 00:18:00,
2013-03-22 17:23:00,69.1,22.5,25.04,West,261,14.5,14.5,17,0.00,,---,0.00,VWS V14.00,2013-03-23 00:23:00,
2013-03-22 17:28:00,68.7,22.2,25.07,WSW,237,21.0,22.8,17,0.00,,---,0.00,VWS V14.00,2013-03-23 00:28:00,
2013-03-22 17:33:00,68.2,21.7,25.07,West,264,20.1,22.8,17,0.00,,---,0.00,VWS V14.00,2013-03-23 00:33:00,
2013-03-22 17:38:00,68.0,21.6,25.07,WSW,243,15.4,22.8,17,0.00,,---,0.00,VWS V14.00,2013-03-23 00:38:00,
2013-03-22 17:43:00,67.8,21.5,25.07,WSW,246,15.0,18.8,17,0.00,,---,0.00,VWS V14.00,2013-03-23 00:43:00,
2013-03-22 17:48:00,67.5,21.2,25.07,NW,305,23.3,23.3,17,0.00,,---,0.00,VWS V14.00,2013-03-23 00:48:00,
2013-03-22 17:53:00,67.3,21.0,25.07,SW,234,15.4,20.1,17,0.00,,---,0.00,VWS V14.00,2013-03-23 00:53:00,
2013-03-22 17:58:00,66.9,20.7,25.07,WSW,238,20.6,23.7,17,0.00,,---,0.00,VWS V14.00,2013-03-23 00:58:00,
2013-03-22 18:04:00,66.6,20.4,25.07,WSW,249,17.9,24.2,17,0.00,,---,0.00,VWS V14.00,2013-03-23 01:04:00,
2013-03-22 18:09:00,66.2,20.1,25.07,WSW,241,15.0,17.9,17,0.00,,---,0.00,VWS V14.00,2013-03-23 01:09:00,
2013-03-22 18:14:00,65.8,21.2,25.07,WSW,246,10.5,24.6,18,0.00,,---,0.00,VWS V14.00,2013-03-23 01:14:00,
2013-03-22 18:19:00,65.5,20.9,25.07,SW,233,16.3,16.3,18,0.00,,---,0.00,VWS V14.00,2013-03-23 01:19:00,
2013-03-22 18:24:00,65.3,20.7,25.07,WSW,252,19.2,25.5,18,0.00,,---,0.00,VWS V14.00,2013-03-23 01:24:00,
2013-03-22 18:29:00,65.3,20.7,25.07,WSW,257,15.0,23.3,18,0.00,,---,0.00,VWS V14.00,2013-03-23 01:29:00,
2013-03-22 18:34:00,65.1,20.6,25.07,WSW,246,15.4,22.4,18,0.00,,---,0.00,VWS V14.00,2013-03-23 01:34:00,
2013-03-22 18:39:00,64.8,20.3,25.07,WSW,250,12.8,15.0,18,0.00,,---,0.00,VWS V14.00,2013-03-23 01:39:00,
2013-03-22 18:44:00,64.8,20.3,25.07,West,260,23.3,23.3,18,0.00,,---,0.00,VWS V14.00,2013-03-23 01:44:00,
2013-03-22 18:49:00,64.6,20.1,25.07,WSW,256,14.1,15.4,18,0.00,,---,0.00,VWS V14.00,2013-03-23 01:49:00,
2013-03-22 18:54:00,64.4,20.0,25.07,WSW,255,17.4,26.2,18,0.00,,---,0.00,VWS V14.00,2013-03-23 01:54:00,
2013-03-22 18:59:00,64.4,20.0,25.10,WSW,247,17.4,26.2,18,0.00,,---,0.00,VWS V14.00,2013-03-23 01:59:00,
2013-03-22 19:04:00,64.4,20.0,25.10,West,281,19.2,19.2,18,0.00,,---,0.00,VWS V14.00,2013-03-23 02:04:00,
2013-03-22 19:09:00,64.2,19.9,25.10,WSW,257,17.4,17.4,18,0.00,,---,0.00,VWS V14.00,2013-03-23 02:09:00,
2013-03-22 19:14:00,64.0,19.7,25.10,West,264,17.0,23.3,18,0.00,,---,0.00,VWS V14.00,2013-03-23 02:14:00,
2013-03-22 19:19:00,64.0,19.7,25.10,WSW,238,15.4,15.4,18,0.00,,---,0.00,VWS V14.00,2013-03-23 02:19:00,
2013-03-22 19:24:00,64.0,19.7,25.10,West,280,15.9,19.7,18,0.00,,---,0.00,VWS V14.00,2013-03-23 02:24:00,
2013-03-22 19:29:00,63.9,19.6,25.10,West,271,15.4,17.4,18,0.00,,---,0.00,VWS V14.00,2013-03-23 02:29:00,
2013-03-22 19:34:00,63.7,19.4,25.10,SW,220,12.8,15.0,18,0.00,,---,0.00,VWS V14.00,2013-03-23 02:34:00,
2013-03-22 19:39:00,63.5,19.3,25.10,SW,218,8.3,15.0,18,0.00,,---,0.00,VWS V14.00,2013-03-23 02:39:00,
2013-03-22 19:45:00,63.5,19.3,25.10,WSW,250,13.2,13.2,18,0.00,,---,0.00,VWS V14.00,2013-03-23 02:45:00,
2013-03-22 19:50:00,63.3,19.1,25.10,WSW,249,10.5,13.2,18,0.00,,---,0.00,VWS V14.00,2013-03-23 02:50:00,
2013-03-22 19:55:00,63.1,19.0,25.10,West,270,16.8,18.8,18,0.00,,---,0.00,VWS V14.00,2013-03-23 02:55:00,
2013-03-22 20:00:00,63.1,19.0,25.13,WSW,245,10.1,15.9,18,0.00,,---,0.00,VWS V14.00,2013-03-23 03:00:00,
2013-03-22 20:05:00,63.0,18.8,25.13,WSW,238,11.0,15.4,18,0.00,,---,0.00,VWS V14.00,2013-03-23 03:05:00,
2013-03-22 20:10:00,63.0,18.8,25.13,WSW,251,12.8,12.8,18,0.00,,---,0.00,VWS V14.00,2013-03-23 03:10:00,
2013-03-22 20:15:00,63.0,18.8,25.13,WSW,254,15.4,15.4,18,0.00,,---,0.00,VWS V14.00,2013-03-23 03:15:00,
2013-03-22 20:20:00,62.8,18.7,25.13,West,261,10.1,13.2,18,0.00,,---,0.00,VWS V14.00,2013-03-23 03:20:00,
2013-03-22 20:25:00,62.6,18.5,25.13,WSW,243,12.8,12.8,18,0.00,,---,0.00,VWS V14.00,2013-03-23 03:25:00,
2013-03-22 20:30:00,62.4,19.6,25.13,West,260,8.1,15.0,19,0.00,,---,0.00,VWS V14.00,2013-03-23 03:30:00,
2013-03-22 20:35:00,62.1,19.3,25.13,WSW,241,10.5,13.2,19,0.00,,---,0.00,VWS V14.00,2013-03-23 03:35:00,
2013-03-22 20:40:00,61.7,19.0,25.13,WNW,282,13.2,17.0,19,0.00,,---,0.00,VWS V14.00,2013-03-23 03:40:00,
2013-03-22 20:46:00,61.7,19.0,25.13,West,261,12.8,17.4,19,0.00,,---,0.00,VWS V14.00,2013-03-23 03:46:00,
2013-03-22 20:51:00,61.7,19.0,25.13,WSW,247,14.5,16.3,19,0.00,,---,0.00,VWS V14.00,2013-03-23 03:51:00,
2013-03-22 20:56:00,61.7,19.0,25.13,West,263,15.0,22.8,19,0.00,,---,0.00,VWS V14.00,2013-03-23 03:56:00,
2013-03-22 21:00:00,61.7,19.0,25.13,WSW,237,21.0,21.0,19,0.00,,---,0.00,VWS V14.00,2013-03-23 04:00:00,
2013-03-22 21:01:00,61.7,19.0,25.13,WSW,254,10.1,21.0,19,0.00,,---,0.00,VWS V14.00,2013-03-23 04:01:00,
2013-03-22 21:02:00,61.7,19.0,25.13,West,276,16.8,18.8,19,0.00,,---,0.00,VWS V14.00,2013-03-23 04:02:00,
2013-03-22 21:07:00,61.5,18.9,25.13,West,264,19.2,21.0,19,0.00,,---,0.00,VWS V14.00,2013-03-23 04:07:00,
2013-03-22 21:12:00,61.5,18.9,25.16,WSW,250,11.9,11.9,19,0.00,,---,0.00,VWS V14.00,2013-03-23 04:12:00,
2013-03-22 21:17:00,61.2,14.6,25.16,WSW,256,11.9,12.3,16,0.00,,---,0.00,VWS V14.00,2013-03-23 04:17:00,
2013-03-22 21:22:00,61.0,14.5,25.16,WNW,298,13.2,13.2,16,0.00,,---,0.00,VWS V14.00,2013-03-23 04:22:00,
2013-03-22 21:27:00,61.0,14.5,25.16,SW,226,11.0,11.0,16,0.00,,---,0.00,VWS V14.00,2013-03-23 04:27:00,
2013-03-22 21:32:00,61.0,14.5,25.16,SW,229,11.4,11.4,16,0.00,,---,0.00,VWS V14.00,2013-03-23 04:32:00,
2013-03-22 21:37:00,60.8,14.4,25.16,WSW,257,10.1,10.5,16,0.00,,---,0.00,VWS V14.00,2013-03-23 04:37:00,
2013-03-22 21:42:00,60.6,15.6,25.16,WSW,248,10.5,10.5,17,0.00,,---,0.00,VWS V14.00,2013-03-23 04:42:00,
2013-03-22 21:47:00,60.6,18.2,25.16,West,278,12.8,14.1,19,0.00,,---,0.00,VWS V14.00,2013-03-23 04:47:00,
2013-03-22 21:52:00,60.6,18.2,25.16,WSW,247,13.2,13.2,19,0.00,,---,0.00,VWS V14.00,2013-03-23 04:52:00,
2013-03-22 21:57:00,60.6,15.6,25.16,West,265,12.8,15.9,17,0.00,,---,0.00,VWS V14.00,2013-03-23 04:57:00,
2013-03-22 22:02:00,60.6,18.2,25.16,WSW,241,15.4,15.4,19,0.00,,---,0.00,VWS V14.00,2013-03-23 05:02:00,
2013-03-22 22:07:00,60.6,18.2,25.16,WSW,249,10.1,15.0,19,0.00,,---,0.00,VWS V14.00,2013-03-23 05:07:00,
2013-03-22 22:12:00,60.6,18.2,25.16,West,271,10.5,17.4,19,0.00,,---,0.00,VWS V14.00,2013-03-23 05:12:00,
2013-03-22 22:17:00,60.4,15.4,25.16,West,259,13.2,17.4,17,0.00,,---,0.00,VWS V14.00,2013-03-23 05:17:00,
2013-03-22 22:22:00,60.4,15.4,25.16,West,263,11.9,13.2,17,0.00,,---,0.00,VWS V14.00,2013-03-23 05:22:00,
2013-03-22 22:27:00,60.3,15.3,25.16,WSW,247,19.2,20.1,17,0.00,,---,0.00,VWS V14.00,2013-03-23 05:27:00,
2013-03-22 22:32:00,60.1,15.1,25.16,WSW,251,7.6,8.3,17,0.00,,---,0.00,VWS V14.00,2013-03-23 05:32:00,
2013-03-22 22:37:00,59.7,14.9,25.16,WSW,238,9.2,15.4,17,0.00,,---,0.00,VWS V14.00,2013-03-23 05:37:00,
2013-03-22 22:43:00,59.4,14.6,25.16,WSW,257,11.0,15.0,17,0.00,,---,0.00,VWS V14.00,2013-03-23 05:43:00,
2013-03-22 22:48:00,59.0,14.3,25.16,WSW,239,12.3,13.6,17,0.00,,---,0.00,VWS V14.00,2013-03-23 05:48:00,
2013-03-22 22:53:00,58.6,14.0,25.16,WSW,247,15.4,15.4,17,0.00,,---,0.00,VWS V14.00,2013-03-23 05:53:00,
2013-03-22 22:58:00,58.5,13.8,25.16,West,259,10.1,13.2,17,0.00,,---,0.00,VWS V14.00,2013-03-23 05:58:00,
2013-03-22 23:03:00,58.1,13.5,25.16,West,277,7.6,10.1,17,0.00,,---,0.00,VWS V14.00,2013-03-23 06:03:00,
2013-03-22 23:08:00,58.1,13.5,25.16,SW,221,7.2,8.7,17,0.00,,---,0.00,VWS V14.00,2013-03-23 06:08:00,
2013-03-22 23:13:00,58.1,13.5,25.16,SW,232,11.0,11.4,17,0.00,,---,0.00,VWS V14.00,2013-03-23 06:13:00,
2013-03-22 23:18:00,58.1,13.5,25.16,WSW,237,10.5,12.8,17,0.00,,---,0.00,VWS V14.00,2013-03-23 06:18:00,
2013-03-22 23:23:00,58.1,13.5,25.16,WSW,248,7.6,10.5,17,0.00,,---,0.00,VWS V14.00,2013-03-23 06:23:00,
2013-03-22 23:28:00,57.9,13.4,25.16,West,266,11.0,12.3,17,0.00,,---,0.00,VWS V14.00,2013-03-23 06:28:00,
2013-03-22 23:33:00,57.7,13.2,25.16,WSW,249,11.0,14.5,17,0.00,,---,0.00,VWS V14.00,2013-03-23 06:33:00,
2013-03-22 23:38:00,57.6,13.1,25.16,WSW,249,8.7,15.0,17,0.00,,---,0.00,VWS V14.00,2013-03-23 06:38:00,
2013-03-22 23:43:00,57.6,13.1,25.16,SW,233,6.3,9.6,17,0.00,,---,0.00,VWS V14.00,2013-03-23 06:43:00,
2013-03-22 23:49:00,57.6,13.1,25.16,WSW,248,7.6,8.3,17,0.00,,---,0.00,VWS V14.00,2013-03-23 06:49:00,
2013-03-22 23:54:00,57.2,12.8,25.16,SW,217,12.3,12.3,17,0.00,,---,0.00,VWS V14.00,2013-03-23 06:54:00,
2013-03-22 23:59:00,57.4,12.9,25.16,WSW,237,5.4,6.3,17,0.00,,---,0.00,VWS V14.00,2013-03-23 06:59:00,